Showing default

OPS 9343 (IDSCS 21), 3286

Orbit data source: Space-Track

OPS 9343 (IDSCS 21), 3286 is a payload satellite owned by SAMSO (US) in GEO that was launched on Thu, 13 Jun 1968 UTC via a TITAN IIIC launch vehicle from the Air Force Eastern Test Range (AFETR). Payload-class satellites include a variety of spacecraft equipped with specific instruments for various scientific and technological missions. These include communications satellites like Starlink; space stations such as the ISS; scientific satellites like the Hubble; Earth observation satellites from companies like Planet Labs, Umbra, and HawkEye 360; GPS; miniature CubeSats for education and research; and military/defense satellites.

Not visible in the next 10 days
Identifier
3286, 1968-050C
Orbit
GEO
Country
Flag of USUS
Related business
Manufacturer
Philco-Ford
Mission
Non-operational Defense Communications
Bus & Motor
IDCSP, Unknown motor
Mass
45 kg wet, 45 kg dry
Launch date (UTC)
1968-06-13 (57 years ago)
Launch vehicle
TITAN IIIC
Launch site
Air Force Eastern Test Range (AFETR)
Object type
Payload
Rocket body
Debris
Shape & HBR
Poly, 0.5 m
Radar Cross Section
0.926 m², Medium (>0.1 m² and < 1m²)

Expand to show TLE details & history
Last TLE update: 18 hours ago

TLE from 18 hours ago
0 OPS 9343 (IDSCS 21)
1 03286U 68050C   25259.61790387 -.00000097  00000-0  00000-0 0  9999
2 03286   6.6582  54.4117 0020330 142.4524 147.0196  1.07757995 44501
Epoch: 2025-09-16T14:49Z
TLE epoch observation values (Epoch: 2025-09-16T14:49:46.894Z)
Latitude
-6.27584°
Longitude
125.87425°
Altitude
33,879.83 km
Speed
3.144 km/s
True Right ascension
22h 56m 30s
True Declination
-6° 16' 09"
Sunlit
Object was in daylight at epoch
Visualization orbit readout
Latitude
Unknown
Longitude
Unknown
Altitude
Unknown
Speed
Unknown
Apparent Right ascension
Unknown
Apparent Declination
Unknown
Sunlit
N/A
Visualization observer readout
Local Sidereal Time
01:53:45
Azimuth
Unknown
Elevation
Unknown
Doppler factor
Unknown
Orbital elements
Apogee altitude
33,893.202 km
Perigee altitude
33,729.791 km
Semi-major axis
40,189.633 km
Eccentricity
0.00203
Inclination
6.6582°
RAAN
54.4117°
Arg. of periapsis
142.4524°
True anomaly
147.14614°
Mean anomaly
147.0196°
Eccentric anomaly
147.0829°
Mean motion
0.26938 °/min
Orbital period
1,336.38 mins
BSTAR
0
Loading maneuver chart data...
Computing Atmospheric mass density...
Loading historical data...
Loading historical data...
Loading historical data...
Loading historical data...
Loading historical data...
Loading historical data...
Loading historical data...

Documentation

Showing up to 5 results
|